Time,TemperatureF,DewpointF,PressureIn,WindDirection,WindDirectionDegrees,WindSpeedMPH,WindSpeedGustMPH,Humidity,HourlyPrecipIn,Conditions,Clouds,dailyrainin,SoftwareType,DateUTC
2013-08-22 00:04:00,-999.0,-99.9,30.05,SSW,204,4.0,9.0,-999,-99.99,,,-99.99,,2013-08-22 04:04:00,
2013-08-22 00:14:00,-999.0,-99.9,30.05,SSW,204,4.0,9.0,-999,-99.99,,,-99.99,,2013-08-22 04:14:00,
2013-08-22 00:24:00,-999.0,-99.9,30.05,SSW,202,5.0,7.0,-999,-99.99,,,-99.99,,2013-08-22 04:24:00,
2013-08-22 00:44:00,-999.0,-99.9,30.04,SW,215,4.0,6.0,-999,-99.99,,,-99.99,,2013-08-22 04:44:00,
2013-08-22 00:54:00,-999.0,-99.9,30.04,SSW,196,3.0,4.0,-999,-99.99,,,-99.99,,2013-08-22 04:54:00,
2013-08-22 01:03:00,-999.0,-99.9,30.04,South,191,3.0,4.0,-999,-99.99,,,-99.99,,2013-08-22 05:03:00,
2013-08-22 01:34:00,-999.0,-99.9,30.04,SSW,211,3.0,5.0,-999,-99.99,,,-99.99,,2013-08-22 05:34:00,
2013-08-22 01:43:00,-999.0,-99.9,30.04,SSW,201,2.0,5.0,-999,-99.99,,,-99.99,,2013-08-22 05:43:00,
2013-08-22 02:22:00,-999.0,-99.9,30.05,SSW,200,3.0,5.0,-999,-99.99,,,-99.99,,2013-08-22 06:22:00,
2013-08-22 02:32:00,-999.0,-99.9,30.05,SW,223,1.0,3.0,-999,-99.99,,,-99.99,,2013-08-22 06:32:00,
2013-08-22 02:52:00,-999.0,-99.9,30.05,SSW,212,2.0,3.0,-999,-99.99,,,-99.99,,2013-08-22 06:52:00,
2013-08-22 03:02:00,-999.0,-99.9,30.05,SW,228,2.0,4.0,-999,-99.99,,,-99.99,,2013-08-22 07:02:00,
2013-08-22 04:23:00,-999.0,-99.9,30.03,SSW,209,3.0,6.0,-999,-99.99,,,-99.99,,2013-08-22 08:23:00,
2013-08-22 04:43:00,-999.0,-99.9,30.03,SW,231,2.0,4.0,-999,-99.99,,,-99.99,,2013-08-22 08:43:00,
2013-08-22 05:01:00,-999.0,-99.9,30.02,WSW,245,2.0,7.0,-999,-99.99,,,-99.99,,2013-08-22 09:01:00,
2013-08-22 05:22:00,-999.0,-99.9,30.01,SSW,209,2.0,4.0,-999,-99.99,,,-99.99,,2013-08-22 09:22:00,
2013-08-22 05:43:00,-999.0,-99.9,30.01,SSW,202,3.0,5.0,-999,-99.99,,,-99.99,,2013-08-22 09:43:00,
2013-08-22 06:04:00,-999.0,-99.9,30.01,SSW,199,3.0,5.0,-999,-99.99,,,-99.99,,2013-08-22 10:04:00,
2013-08-22 06:12:00,-999.0,-99.9,30.00,SSW,196,5.0,7.0,-999,-99.99,,,-99.99,,2013-08-22 10:12:00,
2013-08-22 06:30:00,75.0,-99.9,30.00,North,-999,-999.0,-999.0,-999,-99.99,,,-99.99,,2013-08-22 10:30:00,
2013-08-22 06:32:00,-999.0,-99.9,30.00,South,190,5.0,7.0,-999,-99.99,,,-99.99,,2013-08-22 10:32:00,
2013-08-22 06:42:00,-999.0,-99.9,30.00,SSW,192,4.0,5.0,-999,-99.99,,,-99.99,,2013-08-22 10:42:00,
2013-08-22 08:42:00,-999.0,-99.9,30.02,SW,219,6.0,12.0,-999,-99.99,,,-99.99,,2013-08-22 12:42:00,
2013-08-22 09:02:00,-999.0,-99.9,30.01,SW,223,6.0,13.0,-999,-99.99,,,-99.99,,2013-08-22 13:02:00,
2013-08-22 09:22:00,-999.0,-99.9,30.01,West,263,8.0,15.0,-999,-99.99,,,-99.99,,2013-08-22 13:22:00,
2013-08-22 09:42:00,-999.0,-99.9,30.01,WSW,250,2.0,5.0,-999,-99.99,,,-99.99,,2013-08-22 13:42:00,
2013-08-22 09:52:00,71.0,-99.9,30.02,North,-999,-999.0,-999.0,-999,-99.99,,,-99.99,,2013-08-22 13:52:00,
2013-08-22 10:11:00,-999.0,-99.9,30.02,NW,326,5.0,6.0,-999,-99.99,,,-99.99,,2013-08-22 14:11:00,
2013-08-22 10:22:00,-999.0,-99.9,30.01,NW,307,2.0,3.0,-999,-99.99,,,-99.99,,2013-08-22 14:22:00,
2013-08-22 11:22:00,-999.0,-99.9,30.00,SE,129,0.0,2.0,-999,-99.99,,,-99.99,,2013-08-22 15:22:00,
2013-08-22 11:34:00,-999.0,-99.9,30.00,North,356,2.0,2.0,-999,-99.99,,,-99.99,,2013-08-22 15:34:00,
2013-08-22 11:55:00,74.0,-99.9,30.01,North,6,4.0,4.0,-999,-99.99,,,-99.99,,2013-08-22 15:55:00,
2013-08-22 12:05:00,-999.0,-99.9,30.00,NNE,23,4.0,4.0,-999,-99.99,,,-99.99,,2013-08-22 16:05:00,
2013-08-22 12:14:00,-999.0,-99.9,30.00,North,359,8.0,10.0,-999,-99.99,,,-99.99,,2013-08-22 16:14:00,
2013-08-22 12:25:00,-999.0,-99.9,30.00,NNW,344,6.0,6.0,-999,-99.99,,,-99.99,,2013-08-22 16:25:00,
2013-08-22 12:54:00,-999.0,-99.9,29.99,North,359,0.0,1.0,-999,-99.99,,,-99.99,,2013-08-22 16:54:00,
2013-08-22 13:12:00,-999.0,-99.9,29.98,NNW,329,3.0,3.0,-999,-99.99,,,-99.99,,2013-08-22 17:12:00,
2013-08-22 13:53:00,-999.0,-99.9,29.98,NW,305,5.0,7.0,-999,-99.99,,,-99.99,,2013-08-22 17:53:00,
2013-08-22 14:02:00,-999.0,-99.9,29.97,West,272,3.0,4.0,-999,-99.99,,,-99.99,,2013-08-22 18:02:00,
2013-08-22 14:22:00,-999.0,-99.9,29.97,SW,217,2.0,4.0,-999,-99.99,,,-99.99,,2013-08-22 18:22:00,
2013-08-22 14:43:00,-999.0,-99.9,29.96,SSW,211,5.0,7.0,-999,-99.99,,,-99.99,,2013-08-22 18:43:00,
2013-08-22 14:52:00,-999.0,-99.9,29.95,WSW,245,2.0,4.0,-999,-99.99,,,-99.99,,2013-08-22 18:52:00,
2013-08-22 15:02:00,-999.0,-99.9,29.95,SSW,202,1.0,2.0,-999,-99.99,,,-99.99,,2013-08-22 19:02:00,
2013-08-22 15:11:00,-999.0,-99.9,29.94,SW,221,3.0,6.0,-999,-99.99,,,-99.99,,2013-08-22 19:11:00,
2013-08-22 15:22:00,-999.0,-99.9,29.94,SW,222,4.0,8.0,-999,-99.99,,,-99.99,,2013-08-22 19:22:00,
2013-08-22 15:33:00,-999.0,-99.9,29.94,SW,230,1.0,6.0,-999,-99.99,,,-99.99,,2013-08-22 19:33:00,
2013-08-22 15:42:00,-999.0,-99.9,29.93,WSW,248,3.0,6.0,-999,-99.99,,,-99.99,,2013-08-22 19:42:00,
2013-08-22 15:53:00,-999.0,-99.9,29.91,SW,215,3.0,5.0,-999,-99.99,,,-99.99,,2013-08-22 19:53:00,
2013-08-22 16:42:00,-999.0,-99.9,29.91,SSW,206,3.0,4.0,-999,-99.99,,,-99.99,,2013-08-22 20:42:00,
2013-08-22 16:52:00,-999.0,-99.9,29.91,WSW,239,3.0,6.0,-999,-99.99,,,-99.99,,2013-08-22 20:52:00,
2013-08-22 17:44:00,-999.0,-99.9,29.90,WSW,249,5.0,7.0,-999,-99.99,,,-99.99,,2013-08-22 21:44:00,
2013-08-22 17:54:00,-999.0,-99.9,29.89,SW,219,3.0,6.0,-999,-99.99,,,-99.99,,2013-08-22 21:54:00,
2013-08-22 18:05:00,-999.0,-99.9,29.89,SW,217,5.0,7.0,-999,-99.99,,,-99.99,,2013-08-22 22:05:00,
2013-08-22 18:13:00,-999.0,-99.9,29.89,SW,217,4.0,7.0,-999,-99.99,,,-99.99,,2013-08-22 22:13:00,
2013-08-22 18:25:00,-999.0,-99.9,29.89,SW,217,4.0,7.0,-999,-99.99,,,-99.99,,2013-08-22 22:25:00,
2013-08-22 18:34:00,-999.0,-99.9,29.88,South,191,4.0,8.0,-999,-99.99,,,-99.99,,2013-08-22 22:34:00,
2013-08-22 19:12:00,-999.0,-99.9,29.87,SW,214,5.0,9.0,-999,-99.99,,,-99.99,,2013-08-22 23:12:00,
2013-08-22 19:23:00,-999.0,-99.9,29.87,SW,217,2.0,5.0,-999,-99.99,,,-99.99,,2013-08-22 23:23:00,
2013-08-22 19:33:00,-999.0,-99.9,29.87,SW,217,2.0,5.0,-999,-99.99,,,-99.99,,2013-08-22 23:33:00,
2013-08-22 20:23:00,-999.0,-99.9,29.87,South,186,4.0,6.0,-999,-99.99,,,-99.99,,2013-08-23 00:23:00,
2013-08-22 20:33:00,-999.0,-99.9,29.87,South,184,1.0,2.0,-999,-99.99,,,-99.99,,2013-08-23 00:33:00,
2013-08-22 20:42:00,-999.0,-99.9,29.87,South,183,3.0,4.0,-999,-99.99,,,-99.99,,2013-08-23 00:42:00,
2013-08-22 20:52:00,-999.0,-99.9,29.88,SSW,194,3.0,4.0,-999,-99.99,,,-99.99,,2013-08-23 00:52:00,
2013-08-22 21:02:00,-999.0,-99.9,29.88,South,189,4.0,6.0,-999,-99.99,,,-99.99,,2013-08-23 01:02:00,
2013-08-22 21:11:00,-999.0,-99.9,29.88,SSW,197,3.0,5.0,-999,-99.99,,,-99.99,,2013-08-23 01:11:00,
2013-08-22 21:22:00,-999.0,-99.9,29.88,SW,217,3.0,5.0,-999,-99.99,,,-99.99,,2013-08-23 01:22:00,
2013-08-22 21:42:00,-999.0,-99.9,29.89,SSW,206,2.0,6.0,-999,-99.99,,,-99.99,,2013-08-23 01:42:00,
2013-08-22 21:52:00,-999.0,-99.9,29.89,SSW,211,3.0,6.0,-999,-99.99,,,-99.99,,2013-08-23 01:52:00,
2013-08-22 22:02:00,-999.0,-99.9,29.89,SSW,210,4.0,7.0,-999,-99.99,,,-99.99,,2013-08-23 02:02:00,
2013-08-22 22:11:00,-999.0,-99.9,29.89,SSW,206,4.0,6.0,-999,-99.99,,,-99.99,,2013-08-23 02:11:00,
2013-08-22 22:23:00,-999.0,-99.9,29.88,SSW,212,5.0,8.0,-999,-99.99,,,-99.99,,2013-08-23 02:23:00,
2013-08-22 22:52:00,-999.0,-99.9,29.88,SW,216,4.0,6.0,-999,-99.99,,,-99.99,,2013-08-23 02:52:00,